Regional Weather Roundup
Issued by NWS

Home | Current Version | Previous Version | Text Only | Print | Product List | Glossary Off
Versions: 1 2 3 4 5 6 7 8 9 10 11 12 13 14 15 16 17 18 19 20 21 22 23 24 25 26 27 28 29 30 31 32 33 34 35 36 37 38 39 40 41 42 43 44 45 46 47 48 49 50

000
ASUS44 KMEG 241810
RWRTN
TENNESSEE HOURLY STATE WEATHER ROUNDUP
NATIONAL WEATHER SERVICE MEMPHIS TN
100 PM CDT WED MAY 24 2017

TNZ002-004-019-021-049-052-054-088>092-241900-
WEST TENNESSEE

CITY           SKY/WX    TMP DP  RH WIND       PRES   REMARKS
MEMPHIS INTL   CLOUDY    68  51  54 NW17G24   29.59R
NWS MEMPHIS      N/A     66 N/A N/A MISG        N/A
JACKSON        PTSUNNY   69  55  60 NW16      29.55S
DYERSBURG        N/A    N/A N/A N/A MISG        N/A
COVINGTON      MOSUNNY   70  52  52 NW13G21   29.57S
UNION CITY     PTSUNNY   68  52  56 N8G16     29.53S
BOLIVAR        MOSUNNY   70  50  49 NW9G18    29.56S
PARIS          PTSUNNY   63  57  82 W8G14     29.52S
HUNTINGDON     CLOUDY    63  57  82 VRB5      29.53F
LEXINGTON      PTSUNNY   64  57  77 MISG      29.54F
SELMER         CLOUDY    63  55  77 VRB6      29.56R
SAVANNAH       PTSUNNY   64  55  72 NW10      29.55S
$$

TNZ008-025-027-028-033-062-065-066-241900-
NORTH MIDDLE TENNESSEE

CITY           SKY/WX    TMP DP  RH WIND       PRES   REMARKS
NASHVILLE      CLOUDY    61  58  90 NW15G22   29.44R
PORTLAND       FOG       59  57  94 W10G22    29.40R VSB 1/2
CLARKSVILLE    LGT RAIN  56  52  86 NW16G23   29.49R
COOKEVILLE     PTSUNNY   66  61  82 VRB7G18   29.40S HAZE
GALLATIN       CLOUDY    64  63  94 NW5       29.41S
CROSSVILLE     PTSUNNY   67  56  67 S8G24     29.46F
$$

TNZ061-075-076-078-094-096-097-241900-
SOUTH MIDDLE TENNESSEE

CITY           SKY/WX    TMP DP  RH WIND       PRES   REMARKS
FAYETTEVILLE   PTSUNNY   66  57  72 W10G20    29.51R
TULLAHOMA      PTSUNNY   63  55  77 W24       29.50R
WINCHESTER     PTSUNNY   64  55  72 W13G28      N/A
COLUMBIA       PTSUNNY   61  55  82 VRB6G17   29.50R
SHELBYVILLE    CLOUDY    61  57  88 W16       29.48R
$$

TNZ017-018-042-046-047-241900-
NORTHEAST TENNESSEE

CITY           SKY/WX    TMP DP  RH WIND       PRES   REMARKS
TRI CITIES     NOT AVBL
ELIZABETHTON   PTSUNNY   66  59  77 W21G29    29.53R
$$

TNZ012-013-036-069-073-074-241900-
CENTRAL EAST TENNESSEE

CITY           SKY/WX    TMP DP  RH WIND       PRES   REMARKS
KNOXVILLE      CLOUDY    64  58  80 SW8       29.50F
OAK RIDGE      CLOUDY    66  60  81 S8        29.50F
DOWNTOWN KNOXV MOSUNNY   64  61  88 VRB5G12   29.50F
GATLINBURG     MOSUNNY   61  57  88 CALM      29.50F
MORRISTOWN     MOSUNNY   61  59  94 SW10      29.51F
JACKSBORO      PTSUNNY   66  61  82 S16G22    29.51S
$$

TNZ083-085-099-241900-
SOUTHEAST TENNESSEE

CITY           SKY/WX    TMP DP  RH WIND       PRES   REMARKS
CHATTANOOGA    PTSUNNY   73  58  59 S18G25    29.48F
$$

SKY/WX REPORTED AS FAIR MEANS FEW OR NO CLOUDS BELOW
12 THOUSAND FEET.





USA.gov is the U.S. government's official web portal to all federal, state and local government web resources and services.